FENGYUN 1C DEB *

Satellite information

Favourite Embed

Satellite Type and Status

DEBRISIN ORBIT

Key statistics

Satellite FENGYUN 1C DEB * at a glance.

Uptime

9495

Days in orbit

Revolutions

≈ 14.2

Per day

Orbit

SSO

Sun Synchronous Orbit

Inclination

98.9

Latest

Satellite identification and parameters

Extended collection of information and parameters for FENGYUN 1C DEB *.

Object identification

Identified? True

Debris? True

Object name: FENGYUN 1C DEB *

International designator: 1999-025FCC

Object number (NORAD): 47104

Object ID (CCSDS): 47104

Country: PEOPLES REPUBLIC OF CHINA (PRC)

Current information (Y/N): Y

RCS size: SMALL

Orbital parameters

Period: 101.466 minutes

Inclination: 98.9304 deg

SMA: 7206.224 km

Apoapsis: 856.93 km

Periapsis: 799.247 km

RAAN: 151.3183 deg

Eccentricy: 0.0040023

Argument of periapsis: 254.4492 deg

Mean anomaly: 105.2263 deg

Mean motion: 14.19191983 rev/day

Mean motion (dot): 0.00000661 rev/day2

B* drag term: 0.00033474 1/REarth

Two-line elements (TLE)

Creation date: May 3, 2025, 5:28 p.m.

Reference frame: TEME

Reference center: EARTH

Epoch: May 3, 2025, 7:09 a.m. UTC

TLE line 0: 0 FENGYUN 1C DEB *

TLE line 1: 1 47104U 99025FCC 25123.29835805 .00000661 00000-0 33474-3 0 9991

TLE line 2: 2 47104 98.9304 151.3183 0040023 254.4492 105.2263 14.19191983592036

Live tracking on map

Real-time ground track for satellite FENGYUN 1C DEB *.

In-orbit conjunctions

A list of the most updated potential collisions computed for object FENGYUN 1C DEB *.

Target Orbit TCA Probability of collision Miss distance Type
COSMOS 2263 LEO 2025-04-08 00:48:19 0.0001116305 698.0 (m) PAYLOAD

Associated space launch

Chinese polar orbiting meteorological satellite

FENGYUN 1C DEB * was lifted into orbit during the mission ‘Long March 4B | Feng Yun 1C’, on board a Long March 4B space rocket.

The launch took place on May 10, 1999, 1:33 a.m. from Launch Complex 7.

For more information about the launch, click the button.

Launch to space Long March 4B | Feng Yun 1C
Long March 4B | Feng Yun 1C

Agency: N/A

Status: Launch Successful

Launch date: May 10, 1999, 1:33 a.m. UTC

Rocket: Long March 4B

Launch pad: Launch Complex 7

Location: Taiyuan Satellite Launch Center, People's Republic of China

...

Latest news about this satellite

There are no fresh news available about this satellite. Check back as we update our databases every day.


Newsletter sign-up

Weekly statistics, charts and insights to help you stay on top of the space industry.